• Join FlightAware (Why Join?)
  • Login
  • US Flag GB Flag 
16:50 EDT


 

Airport Tracker/Info


-or-


 

Live Flight TrackerFlight Track Log ✈ CPT1940 ✈ 19-Feb-2014 ✈ KBFF - KCPR

Flight Track Log - Related Links

Times and Time Zones

All times are in EST time to prevent confusion due to time zone crossing. See the CPT1940 flight status page for this flight to view local times or setup timezone preferences in your user account.

Time Position Orientation Groundspeed Altitude Reporting Facility
EST Latitude Longitude Course Direction KTS MPH feet Rate Location/Type
17:33 41.9353 -103.6789 310° West 109 125 7,500  Level Denver Center
17:34 41.9544 -103.7100 310° West 112 129 8,600 960 Climbing Denver Center
17:35 41.9775 -103.7464 310° West 113 130 9,600 720 Climbing Denver Center
17:36 41.9981 -103.7797 310° West 117 135 10,100 240 Climbing Denver Center
17:37 42.0217 -103.8158 311° West 126 145 10,100 -60 Level Denver Center
17:38 42.0531 -103.8628 312° West 144 166 10,000  Descending Denver Center
17:39 42.0769 -103.9011 310° West 143 165 10,100  Climbing Denver Center
17:40 42.1056 -103.9461 311° West 141 162 10,100  Level Denver Center
17:41 42.1294 -103.9853 309° West 141 162 10,100  Level Denver Center
17:42 42.1569 -104.0281 311° West 138 159 10,100  Level Denver Center
17:43 42.1806 -104.0669 309° West 138 159 10,100 -60 Level Denver Center
17:44 42.2086 -104.1106 311° West 139 160 10,000  Descending Denver Center
17:45 42.2311 -104.1469 310° West 135 155 10,100  Climbing Denver Center
17:46 42.2600 -104.1911 311° West 137 158 10,100  Level Denver Center
17:47 42.2847 -104.2303 310° West 141 162 10,100 -60 Level Denver Center
17:48 42.3136 -104.2728 313° West 140 161 10,000  Descending Denver Center
17:49 42.3319 -104.3058 307° West 127 146 10,100  Climbing Denver Center
17:50 42.3506 -104.3386 308° West 118 136 10,100 -120 Level Denver Center
17:51 42.3739 -104.3758 310° West 116 133 9,900 -120 Descending Denver Center
17:52 42.3958 -104.4089 312° West 120 138 9,900  Level Denver Center
17:53 42.4203 -104.4475 311° West 121 139 9,900  Level Denver Center
17:54 42.4397 -104.4803 309° West 119 137 9,900  Level Denver Center
17:56 42.4619 -104.5178 309° West 116 133 9,900  Level Denver Center
17:57 42.4822 -104.5508 310° West 117 135 10,000  Climbing Denver Center
17:58 42.5125 -104.5964 312° West 123 142 9,900 -60 Descending Denver Center
17:59 42.5236 -104.6317 293° West 118 136 9,900  Level Denver Center
18:00 42.5333 -104.6750 287° West 109 125 9,900  Level Denver Center
18:01 42.5431 -104.7139 289° West 111 128 10,000 60 Climbing Denver Center
18:02 42.5561 -104.7642 289° West 121 139 10,100  Climbing Denver Center
18:03 42.5658 -104.8075 287° West 124 143 10,100  Level Denver Center
18:04 42.5769 -104.8592 286° West 126 145 10,100  Level Denver Center
18:05 42.5861 -104.9022 286° West 126 145 10,100  Level Denver Center
18:06 42.5942 -104.9442 285° West 123 142 10,100  Level Denver Center
18:07 42.6050 -104.9972 286° West 126 145 10,100  Level Denver Center
18:08 42.6161 -105.0436 288° West 132 152 10,100  Level Denver Center
18:09 42.6294 -105.1056 286° West 134 154 10,100  Level Denver Center
18:10 42.6406 -105.1589 286° West 133 153 10,100  Level Denver Center
18:11 42.6492 -105.2050 284° West 131 151 10,100  Level Denver Center
18:12 42.6619 -105.2600 288° West 134 154 10,100  Level Denver Center
18:13 42.6722 -105.3083 286° West 137 158 10,100  Level Denver Center
18:15 42.6831 -105.3614 286° West 133 153 10,100  Level Denver Center
18:16 42.6925 -105.4067 286° West 132 152 10,100  Level Denver Center
18:17 42.7025 -105.4522 287° West 131 151 10,100  Level Denver Center
18:18 42.7133 -105.5067 285° West 133 153 10,100  Level Denver Center
18:19 42.7233 -105.5544 286° West 135 155 10,100  Level Denver Center
18:20 42.7347 -105.6072 286° West 132 152 10,100  Level Denver Center
18:21 42.7425 -105.6458 285° West 132 152 10,100  Level Denver Center
18:22 42.7572 -105.7111 287° West 138 159 10,100 -60 Level Denver Center
18:23 42.7667 -105.7575 286° West 136 157 10,000 -60 Descending Denver Center
18:24 42.7778 -105.8122 285° West 135 155 10,000  Level Denver Center
18:25 42.7875 -105.8647 284° West 142 163 10,000  Level Denver Center
18:26 42.7997 -105.9222 286° West 144 166 10,000  Level Denver Center
18:27 42.8147 -105.9678 294° West 140 161 10,000  Level Denver Center
18:28 42.8394 -106.0169 304° West 138 159 10,000 -120 Level Denver Center
18:29 42.8578 -106.0606 300° West 138 159 9,800 -540 Descending Denver Center
18:30 42.8775 -106.1106 298° West 137 158 8,900 -840 Descending Denver Center
18:31 42.8953 -106.1536 299° West 136 157 8,100 -780 Descending Denver Center
18:32 42.9131 -106.1981 299° West 137 158 7,400 -600 Descending Denver Center
18:33 42.9153 -106.2581 273° West 138 159 6,900 -300 Descending Denver Center
18:34 42.9111 -106.3119 264° West 144 166 6,900 -60 Level Denver Center
18:35 42.9108 -106.3703 270° West 146 168 6,800 -120 Descending Denver Center
18:37 42.8981 -106.4425 289° West  Level FlightAware Approximate
18:44 42.9000 -106.4500 289° West  Level FlightAware Approximate
18:45 42.9080 -106.4644 289° West  Level Estimated
18:46 42.9080 -106.4644 289° West  Level Estimated